Wind_Speed
16 12 15 15 17 22 9 5 8 8 8 8 14 14 12 20 15 15 16 19 17 20 19 17 13 12 13 12 13 14 14 11 9 7 8 7 8 9 8 8 10 12 8 7
11 13 17 2 6 6 8 1 4 6 7 9 8 8 14 18 20 14 16 15 19 18 20 18 16 14 14 13 14 14 15 13 11 9 9 8 9 7 7 8 7 8 7 8
14 14 9 4 9 10 12 3 5 13 9 8 5 9 12 13 20 20 18 17 13 19 19 17 17 16 16 15 14 15 15 14 12 10 9 10 8 9 9 10 6 7 7 5
12 15 6 11 12 13 1 7 4 7 8 2 24 3 19 16 13 15 22 19 17 16 20 21 22 19 18 17 14 14 16 15 13 14 11 10 9 7 9 9 8 7 8 6
15 12 11 12 14 15 4 4 6 6 12 13 16 8 7 15 17 17 17 24 25 21 22 23 22 23 21 19 17 15 15 17 15 15 13 13 11 4 9 10 11 9 9 7
10 2 10 14 3 3 4 6 7 10 11 9 0 8 9 3 8 11 22 20 21 26 19 21 17 18 18 20 18 17 17 17 17 15 16 14 10 12 7 12 9 9 9 9
13 12 11 6 12 8 11 16 5 6 5 8 12 7 9 3 9 6 3 18 22 24 23 23 20 21 21 23 20 21 19 18 19 16 14 16 12 10 6 10 11 11 12 11
12 13 14 12 15 7 14 17 10 7 8 6 6 0 6 6 9 10 3 2 19 21 22 22 21 21 19 19 20 21 21 19 19 18 16 14 15 12 11 11 10 9 11 11
8 8 17 15 10 10 6 8 14 9 7 5 5 5 10 5 7 7 8 9 8 13 20 18 21 21 19 20 20 20 19 19 19 19 18 17 18 16 12 13 15 10 10 7
3 9 13 12 9 11 14 13 6 6 2 10 2 4 10 9 6 5 5 12 7 8 12 19 20 21 21 22 20 21 20 19 19 18 18 17 17 16 16 14 14 14 21 17
16 10 9 9 12 15 8 10 8 12 7 3 3 7 10 12 6 4 8 5 9 8 7 9 16 17 19 19 22 23 22 20 19 20 19 18 17 17 17 17 16 16 10 8
18 8 12 16 14 7 11 9 8 6 8 6 8 7 11 12 11 5 9 9 9 5 5 6 11 17 21 22 17 19 23 21 21 20 20 18 18 18 17 18 19 18 17 15
15 11 10 13 14 12 10 14 13 14 13 9 10 8 7 10 13 8 9 10 7 5 4 4 5 9 14 18 21 22 21 20 21 21 21 20 19 19 20 19 19 20 20 21
12 15 14 2 13 3 13 9 5 13 10 8 9 16 14 12 9 9 6 8 7 6 5 5 5 5 9 14 17 21 21 21 20 21 22 22 22 21 21 20 22 21 22 23
13 18 10 11 15 4 8 8 8 11 15 16 6 7 6 10 7 13 8 8 8 7 6 6 5 5 6 10 10 19 18 16 20 21 20 22 24 23 23 25 24 24 24 23
17 17 13 13 6 6 10 10 12 11 12 13 9 10 8 10 5 6 9 9 9 8 6 6 5 6 6 8 11 14 15 16 17 16 21 23 26 25 25 25 23 24 27 26
18 15 13 14 13 9 10 14 13 10 10 10 11 4 9 2 5 9 9 9 9 7 6 6 6 5 5 7 10 8 10 15 9 15 19 20 24 25 26 25 26 25 25 27
18 16 12 11 11 13 12 4 6 8 9 9 10 10 5 4 5 8 10 10 9 9 6 5 4 4 3 4 5 7 12 14 23 21 19 22 23 24 27 27 29 29 26 27
16 15 13 11 13 11 10 7 9 9 10 9 9 7 7 5 8 8 9 9 9 8 6 5 4 4 5 5 7 8 9 10 14 22 19 18 17 20 24 29 32 31 29 28
17 14 11 10 13 16 13 3 10 3 10 11 7 5 8 11 10 9 10 7 7 5 4 4 5 6 7 7 8 9 10 13 16 17 19 18 18 21 23 26 29 31 33 33
16 13 15 14 10 11 4 7 9 7 3 4 10 10 14 8 11 14 9 5 3 3 5 7 7 8 9 10 9 11 11 13 13 14 15 18 21 20 21 23 25 29 33 34
19 16 15 14 14 14 10 10 10 2 3 3 6 9 10 8 6 7 4 2 4 8 10 12 10 11 11 11 11 11 15 12 12 14 15 13 16 18 16 18 22 24 27 30
18 17 15 14 13 12 11 13 11 12 4 5 6 8 7 11 7 4 2 4 6 7 8 9 11 11 12 11 11 13 15 13 12 13 12 15 15 13 14 13 15 16 22 25
22 24 16 13 12 4 14 11 9 12 6 9 9 7 9 8 7 4 2 4 6 8 9 10 12 12 12 11 10 17 13 12 12 12 14 16 16 12 11 12 14 13 14 13
11 11 13 13 4 11 12 12 13 11 10 7 8 9 9 10 7 4 3 5 7 10 12 12 12 13 13 13 14 13 14 10 12 13 12 15 14 12 11 12 12 13 13 14
12 11 12 9 15 15 12 14 15 14 12 11 10 10 10 8 6 4 4 6 9 12 13 12 11 12 13 12 14 11 15 13 12 14 14 15 13 11 11 11 12 14 15 17
Wind_Direction
206 226 232 233 130 204 297 49 99 93 129 211 186 156 162 175 191 205 229 175 204 188 176 174 176 172 172 177 178 181 182 179 177 179 170 168 173 173 178 191 211 189 180 183
186 236 252 99 331 314 292 49 85 128 161 233 146 176 160 173 194 200 216 226 200 190 180 169 172 178 183 183 186 187 191 197 190 196 194 178 178 182 186 196 213 175 184 178
243 218 246 254 223 229 237 241 142 157 189 250 227 5 161 179 180 198 207 234 230 186 192 188 189 186 184 185 191 190 192 195 183 181 180 179 187 163 181 194 206 197 185 183
236 264 209 237 236 248 149 353 206 235 115 76 282 199 315 162 190 193 199 212 230 218 194 209 189 193 190 181 191 193 188 191 188 180 188 189 185 178 176 192 187 201 185 189
214 220 222 233 223 222 66 147 264 258 268 171 241 258 185 165 180 191 214 199 202 219 221 198 216 195 187 183 184 197 190 194 189 192 191 200 189 215 150 173 186 176 205 191
288 222 213 213 198 225 345 210 226 243 250 261 35 284 107 259 107 176 181 204 197 212 214 225 207 193 176 193 186 190 194 190 186 196 205 191 210 201 189 184 185 188 204 210
210 185 196 241 199 188 226 222 130 300 357 320 213 282 70 182 107 71 133 177 186 199 209 223 199 194 186 184 190 190 192 194 191 194 205 207 205 203 188 182 192 196 196 204
199 172 186 204 228 196 209 263 277 285 182 186 113 327 88 59 97 110 154 265 182 188 205 215 205 202 188 195 194 195 191 199 197 197 197 205 207 203 198 202 206 208 210 184
196 198 167 185 230 262 150 255 277 298 198 266 140 169 136 108 128 130 125 157 185 201 197 209 211 210 200 198 200 200 195 201 203 203 202 199 209 199 204 216 215 208 219 188
305 152 175 178 241 244 282 331 213 216 185 261 138 221 128 187 96 133 190 125 126 163 205 196 207 209 208 201 204 202 202 204 207 205 207 204 201 202 208 211 216 218 205 222
256 251 160 157 208 219 189 238 237 286 336 298 103 10 93 120 110 86 105 113 116 129 152 186 199 207 210 211 204 202 205 207 211 209 209 202 204 209 209 207 217 226 242 217
229 234 178 203 210 266 304 282 242 224 191 291 326 129 100 120 128 118 107 103 104 97 121 172 190 204 210 212 209 214 203 212 213 212 211 211 205 205 215 216 212 216 224 227
215 242 189 200 184 206 241 248 267 276 282 173 269 120 134 140 137 151 132 132 132 120 107 129 185 199 211 207 214 208 212 210 213 209 213 214 217 216 214 220 221 218 224 224
264 235 251 150 319 169 199 222 254 277 276 258 243 140 162 161 154 149 156 147 143 137 130 131 151 178 205 214 207 212 209 210 210 215 215 218 220 221 224 223 223 226 223 225
232 242 234 182 236 275 301 290 276 257 270 283 74 258 59 104 139 158 178 168 160 155 140 147 156 172 188 205 207 199 210 211 211 215 222 223 224 225 227 227 227 227 230 231
219 246 269 294 228 260 271 265 264 253 255 256 287 285 80 108 107 149 174 182 183 167 156 147 143 157 180 189 191 204 215 213 210 226 227 230 234 229 230 235 232 234 233 232
225 237 237 241 254 205 253 251 252 246 253 253 250 269 94 132 155 163 178 192 186 174 167 158 160 163 162 182 189 191 216 230 256 241 234 237 235 238 240 234 234 237 240 234
220 233 236 244 256 226 252 36 334 314 297 279 271 277 162 144 164 166 176 185 180 171 168 174 173 173 188 193 216 221 223 233 239 255 242 235 236 242 235 236 231 235 237 240
215 215 228 245 241 234 209 198 230 240 257 255 257 255 128 158 173 163 165 164 167 173 178 186 213 235 246 248 245 244 240 234 233 242 250 240 238 241 239 242 243 240 237 234
248 204 233 218 255 256 241 211 155 287 265 230 191 219 161 187 213 145 152 156 161 171 196 232 246 262 268 273 271 265 257 247 243 246 238 244 245 242 243 241 245 244 242 237
230 224 217 226 227 242 235 121 116 227 59 114 178 192 165 193 71 126 151 164 185 236 257 260 266 268 272 274 273 276 277 268 265 264 254 242 244 254 249 250 251 248 245 241
208 205 225 233 233 234 146 158 193 4 126 254 190 195 160 126 161 156 166 250 288 290 284 271 262 270 275 276 275 275 281 286 275 267 264 250 244 245 244 250 255 256 247 243
214 218 216 228 224 197 158 216 198 244 188 199 195 202 179 177 198 217 242 311 316 310 302 287 273 273 274 277 279 277 282 289 253 255 266 238 255 255 249 253 250 257 246 241
211 211 225 237 256 129 190 193 212 205 199 181 202 204 186 204 210 206 257 305 316 314 309 296 280 274 276 278 281 279 290 282 248 260 251 241 253 260 260 258 258 260 249 249
246 184 212 219 243 197 194 207 201 209 191 213 193 188 195 202 200 217 287 302 304 309 306 294 281 273 274 282 277 287 287 271 268 260 248 249 241 247 247 248 248 248 248 251
162 205 207 227 199 195 193 206 219 196 204 206 198 193 199 199 203 200 270 304 306 307 302 288 279 277 278 279 282 289 284 259 260 267 262 233 230 239 249 257 264 256 252 243
Height
1498 1494 1487 1474 1486 1492 1480 1480 1491 1490 1495 1495 1501 1503 1508 1517 1521 1519 1521 1522 1526 1530 1533 1537 1541 1544 1548 1552 1556 1558 1560 1562 1564 1566 1568 1570 1571 1573 1575 1576 1575 1576 1579 1579
1493 1495 1477 1477 1480 1483 1479 1481 1493 1491 1493 1494 1492 1493 1499 1507 1516 1517 1520 1520 1524 1526 1533 1534 1537 1542 1546 1551 1554 1557 1559 1561 1562 1565 1565 1569 1570 1572 1574 1575 1574 1576 1578 1579
1488 1479 1480 1481 1484 1487 1479 1477 1484 1511 1490 1489 1489 1512 1497 1503 1507 1516 1521 1519 1520 1524 1527 1531 1535 1540 1544 1548 1552 1554 1556 1558 1561 1564 1566 1568 1570 1570 1573 1573 1575 1576 1577 1579
1486 1479 1484 1485 1485 1479 1480 1477 1483 1484 1506 1553 1495 1525 1521 1495 1503 1508 1511 1519 1519 1519 1524 1527 1531 1537 1541 1544 1549 1553 1554 1556 1559 1562 1566 1567 1568 1570 1571 1573 1575 1576 1578 1580
1483 1482 1482 1486 1480 1477 1479 1481 1481 1485 1482 1498 1497 1482 1501 1483 1494 1498 1505 1507 1515 1518 1519 1522 1528 1530 1535 1541 1546 1551 1552 1554 1558 1562 1564 1565 1567 1567 1571 1572 1573 1576 1577 1579
1476 1477 1477 1475 1474 1479 1477 1481 1480 1479 1477 1491 1486 1482 1490 1507 1476 1484 1492 1501 1510 1516 1517 1518 1524 1527 1532 1539 1543 1547 1550 1552 1556 1560 1561 1564 1567 1567 1568 1571 1574 1576 1577 1579
1477 1476 1475 1475 1477 1477 1480 1475 1508 1519 1523 1501 1479 1480 1486 1478 1477 1481 1489 1495 1506 1512 1517 1517 1521 1526 1529 1534 1540 1543 1548 1550 1553 1557 1560 1561 1565 1567 1568 1571 1573 1574 1575 1577
1480 1492 1473 1474 1470 1473 1477 1470 1487 1521 1514 1477 1467 1483 1480 1475 1479 1486 1494 1492 1496 1504 1511 1512 1516 1522 1526 1532 1537 1541 1543 1548 1551 1554 1557 1560 1563 1566 1569 1570 1572 1572 1573 1574
1467 1467 1464 1468 1469 1470 1469 1481 1458 1469 1458 1480 1471 1473 1468 1475 1478 1484 1488 1495 1497 1501 1506 1511 1515 1519 1524 1529 1534 1538 1542 1547 1549 1552 1554 1557 1559 1563 1567 1569 1570 1572 1572 1572
1456 1473 1462 1466 1471 1471 1470 1465 1476 1471 1497 1496 1491 1479 1487 1481 1481 1482 1483 1487 1498 1500 1504 1507 1513 1517 1521 1525 1531 1535 1540 1544 1547 1550 1552 1555 1556 1559 1563 1566 1567 1569 1566 1570
1458 1461 1469 1465 1473 1469 1473 1475 1469 1460 1466 1483 1489 1499 1466 1476 1480 1482 1487 1491 1495 1500 1504 1507 1511 1514 1518 1522 1525 1530 1535 1540 1544 1547 1550 1552 1555 1557 1559 1562 1564 1565 1566 1568
1459 1454 1470 1465 1455 1456 1457 1460 1463 1473 1485 1468 1471 1492 1470 1476 1480 1486 1490 1494 1500 1502 1504 1506 1509 1512 1515 1518 1522 1526 1529 1535 1539 1543 1547 1549 1551 1554 1557 1558 1560 1562 1565 1567
1458 1461 1478 1471 1460 1461 1468 1463 1460 1455 1452 1472 1484 1488 1473 1476 1479 1485 1488 1496 1501 1503 1505 1506 1508 1511 1513 1517 1521 1523 1528 1531 1535 1539 1542 1545 1547 1549 1552 1554 1556 1558 1559 1561
1458 1455 1456 1471 1475 1452 1468 1463 1463 1463 1468 1464 1463 1471 1469 1473 1479 1485 1490 1494 1499 1502 1505 1506 1508 1510 1512 1514 1517 1521 1525 1528 1531 1534 1538 1540 1543 1545 1547 1549 1551 1553 1554 1555
1456 1463 1459 1453 1461 1459 1461 1464 1463 1469 1466 1468 1464 1470 1459 1465 1472 1481 1489 1494 1498 1501 1503 1506 1507 1509 1511 1513 1515 1518 1521 1524 1528 1531 1533 1535 1538 1539 1541 1543 1545 1547 1548 1550
1454 1461 1455 1457 1449 1458 1467 1463 1463 1463 1464 1463 1462 1467 1463 1475 1480 1483 1489 1493 1497 1499 1502 1504 1507 1509 1510 1511 1512 1515 1519 1520 1523 1527 1528 1530 1531 1532 1534 1536 1538 1540 1542 1544
1452 1454 1461 1467 1452 1458 1475 1464 1460 1461 1460 1462 1472 1465 1469 1478 1480 1484 1490 1493 1496 1498 1501 1503 1506 1508 1509 1510 1510 1512 1514 1516 1518 1521 1523 1524 1526 1527 1527 1530 1532 1534 1536 1538
1449 1453 1454 1463 1459 1484 1458 1452 1455 1460 1459 1459 1460 1462 1466 1474 1482 1485 1489 1493 1496 1499 1501 1503 1505 1507 1509 1510 1511 1510 1510 1512 1514 1517 1518 1519 1520 1520 1521 1523 1524 1527 1528 1530
1436 1447 1456 1467 1465 1455 1452 1456 1461 1464 1467 1460 1462 1465 1470 1478 1483 1487 1489 1492 1496 1499 1501 1503 1505 1506 1507 1508 1509 1509 1510 1511 1510 1511 1513 1514 1514 1514 1515 1515 1517 1520 1522 1523
1437 1439 1450 1456 1470 1476 1446 1444 1450 1459 1471 1458 1462 1466 1472 1479 1481 1479 1490 1493 1496 1498 1500 1502 1503 1504 1505 1505 1505 1505 1505 1506 1506 1506 1507 1508 1508 1507 1508 1510 1511 1513 1515 1516
1448 1444 1452 1453 1463 1453 1442 1448 1455 1479 1469 1455 1461 1466 1471 1477 1481 1486 1491 1493 1496 1497 1499 1500 1501 1502 1502 1502 1502 1500 1499 1498 1499 1500 1499 1500 1500 1501 1501 1502 1503 1505 1506 1508
1447 1451 1448 1449 1456 1468 1441 1450 1464 1458 1460 1462 1463 1467 1471 1479 1484 1486 1489 1492 1494 1495 1496 1496 1497 1499 1499 1499 1499 1498 1495 1494 1494 1494 1493 1494 1495 1494 1495 1495 1496 1497 1498 1500
1436 1431 1437 1437 1438 1436 1442 1450 1453 1458 1460 1463 1465 1468 1472 1478 1483 1485 1488 1491 1492 1493 1494 1494 1494 1495 1496 1496 1495 1494 1491 1489 1490 1490 1490 1490 1490 1490 1490 1491 1491 1491 1493 1494
1422 1422 1426 1433 1436 1434 1442 1448 1452 1456 1459 1463 1466 1469 1473 1477 1480 1483 1487 1489 1490 1492 1492 1492 1491 1491 1492 1492 1492 1488 1486 1486 1486 1485 1485 1486 1486 1487 1486 1487 1488 1488 1489 1490
1428 1422 1425 1428 1430 1435 1442 1446 1450 1455 1459 1461 1464 1468 1473 1477 1479 1483 1486 1488 1489 1490 1490 1489 1488 1488 1488 1488 1487 1485 1483 1482 1483 1481 1482 1482 1483 1484 1484 1485 1485 1484 1485 1485
1423 1424 1425 1426 1428 1438 1441 1446 1450 1454 1459 1462 1465 1469 1473 1476 1479 1483 1486 1487 1488 1487 1486 1485 1485 1485 1485 1483 1482 1481 1479 1478 1478 1478 1478 1479 1480 1481 1482 1482 1481 1480 1481 1482